Location: Feigenhofen
(48.4939°N, 10.7793°E)
Time: 22:29:06
(UTC+00:00)

COSMOS 2455 - Pass Details

Date: 26 May 2022
Orbit: 901 x 908 km, 67.1° (Epoch: 24 June)

Event Time Altitude Azimuth Distance (km) Brightness Sun altitude
Exits shadow 02:04:48 13° 212° (SSW) 2,350 4.4 -10.6°
Maximum altitude 02:10:11 89° 120° (ESE) 915 2.9 -10.1°
Drops below altitude 10° 02:16:15 10° 35° (NE) 2,602 6.9 -9.4°
Sets 02:18:46 0° 35° (NE) 3,547 8.1 -9.1°
